Weather History for KBGD - July, 2013

Change the Weather History Date:

Sunday, July 14, 2013

  Actual Average Record
Temperature  
Mean Temperature 76 °F 82 °F  
Max Temperature 91 °F 94 °F 107 °F (2003)
Min Temperature 61 °F 70 °F 53 °F (1990)
Degree Days  
Heating Degree Days 0 0  
Month to date heating degree days 0 0  
Since 1 June heating degree days 0 3  
Since 1 July heating degree days 0 0  
Cooling Degree Days 11 17  
Month to date cooling degree days 258 230  
Year to date cooling degree days 1039 785  
Since 1 June cooling degree days 751 588  
Growing Degree Days 26 (Base 50)    
Moisture  
Dew Point 53 °F    
Average Humidity 56    
Maximum Humidity 90    
Minimum Humidity 21    
Precipitation  
Precipitation 0.08 in 0.07 in 1.74 in (1956)
Month to date precipitation 0.17 1.20  
Year to date precipitation 6.81 11.42  
Snow  
Snow 0.00 in - 0.00 in (2013)
Month to date snowfall 0.0  
Since 1 June snowfall 0.0  
Since 1 July snowfall 0.0  
Snow Depth 0.00 in    
Sea Level Pressure  
Sea Level Pressure 29.89 in    
Wind  
Wind Speed 12 mph (SSE)    
Max Wind Speed 28 mph    
Max Gust Speed 37 mph    
Visibility 10 miles    
Events Rain    
T = Trace of Precipitation, MM = Missing Value Source: NWS Daily Summary

Daily Weather History Graph

Daily Weather History Graph

Search for Another Location

Airport or City:

Trip Planner

Search our weather history database for the weather conditions in past years. The results will help you decide how hot, cold, wet, or windy it might be!

Date:

Astronomy

Jul. 14, 2013 Rise Set
Actual Time 6:40 AM CDT 9:01 PM CDT
Civil Twilight 6:11 AM CDT 9:31 PM CDT
Nautical Twilight 5:35 AM CDT 10:07 PM CDT
Astronomical Twilight 4:55 AM CDT 10:46 PM CDT
Moon 12:45 PM CDT (7/14) No Moon Set
Length of Visible Light 15h 19m
Length of Day
14h 21m
Waxing Crescent, 35% of the Moon is Illuminated
Jul 14
Waxing Crescent
Jul 15
First Quarter
Jul 22
Full
Jul 29
Last Quarter
Aug 6
New

Hourly Weather History & Observations

Time (CDT) Temp. Heat Index Dew Point Humidity Pressure Visibility Wind Dir Wind Speed Gust Speed Precip Events Conditions
12:51 AM 88.0 °F - 46.9 °F 24% 29.83 in 10.0 mi South 11.5 mph 20.7 mph N/A   Clear
1:51 AM 84.9 °F - 46.9 °F 27% 29.83 in 10.0 mi SSW 10.4 mph - N/A   Clear
2:51 AM 84.0 °F - 46.0 °F 26% 29.82 in 10.0 mi SSW 8.1 mph - N/A   Clear
3:51 AM 80.1 °F - 46.0 °F 30% 29.83 in 10.0 mi East 3.5 mph - N/A   Clear
4:51 AM 77.0 °F - 46.0 °F 33% 29.83 in 10.0 mi SSW 6.9 mph - N/A   Clear
5:51 AM 77.0 °F - 45.0 °F 32% 29.82 in 10.0 mi SSW 6.9 mph - N/A   Clear
6:51 AM 75.0 °F - 45.0 °F 34% 29.82 in 10.0 mi West 3.5 mph - N/A   Clear
7:51 AM 78.1 °F - 45.0 °F 31% 29.81 in 10.0 mi West 4.6 mph - N/A   Scattered Clouds
8:51 AM 86.0 °F - 45.0 °F 24% 29.81 in 10.0 mi West 9.2 mph - N/A   Clear
9:51 AM 89.1 °F - 45.0 °F 22% 29.82 in 10.0 mi NW 8.1 mph 18.4 mph N/A   Scattered Clouds
10:49 AM 84.2 °F 83.0 °F 55.4 °F 37% 30.02 in 10.0 mi East 5.8 mph 20.7 mph N/A   Mostly Cloudy
10:51 AM 84.9 °F 83.6 °F 55.0 °F 36% 29.86 in 10.0 mi Variable 6.9 mph 20.7 mph N/A   Mostly Cloudy
11:51 AM 82.0 °F 81.6 °F 55.9 °F 41% 29.87 in 10.0 mi SE 21.9 mph 33.4 mph N/A   Clear
12:51 PM 84.0 °F 82.9 °F 55.0 °F 37% 29.87 in 10.0 mi SE 20.7 mph 29.9 mph N/A   Clear
1:51 PM 87.1 °F 85.3 °F 55.0 °F 33% 29.87 in 10.0 mi SE 15.0 mph 21.9 mph N/A   Clear
2:51 PM 80.1 °F 80.2 °F 55.9 °F 43% 29.90 in 10.0 mi SE 17.3 mph 29.9 mph N/A   Mostly Cloudy
3:51 PM 73.0 °F - 62.1 °F 68% 29.91 in 10.0 mi SE 15.0 mph 23.0 mph 0.03 in Rain Light Rain
4:32 PM 75.2 °F - 60.8 °F 61% 30.00 in 10.0 mi SSE 18.4 mph 31.1 mph 0.00 in   Mostly Cloudy
4:51 PM 75.9 °F - 60.1 °F 58% 29.87 in 10.0 mi SSE 21.9 mph 32.2 mph 0.00 in   Overcast
5:51 PM 73.9 °F - 55.9 °F 53% 29.89 in 10.0 mi SE 26.5 mph 35.7 mph N/A   Clear
6:51 PM 72.0 °F - 55.9 °F 57% 29.92 in 10.0 mi SSE 24.2 mph 32.2 mph N/A   Clear
7:51 PM 71.1 °F - 55.0 °F 57% 29.94 in 10.0 mi SE 24.2 mph 33.4 mph N/A   Scattered Clouds
8:51 PM 64.0 °F - 57.0 °F 78% 29.97 in 10.0 mi SE 19.6 mph 28.8 mph 0.00 in   Overcast
9:51 PM 62.1 °F - 59.0 °F 90% 30.01 in 8.0 mi SE 9.2 mph - 0.05 in Rain Light Rain
10:51 PM 62.1 °F - 59.0 °F 90% 30.04 in 10.0 mi Calm Calm - 0.00 in   Overcast
11:51 PM 63.0 °F - 59.0 °F 87% 30.05 in 10.0 mi SSE 4.6 mph - N/A   Overcast